| time (UTC) | temp F | wind direction | speed MPH | gust MPH | rain 1hr in | rain 24hr in | rain mn in | humidity % | barometer mb |
| 20260502163713 | 37 | 0.0 | 0.0 | 0.00 | 0.52 | 0.02 | 93 | 1015.0 | |
| 20260502162712 | 36 | 0.0 | 0.0 | 0.00 | 0.53 | 0.02 | 93 | 1015.0 | |
| 20260502161713 | 35 | 0.0 | 0.0 | 0.00 | 0.53 | 0.02 | 93 | 1014.6 | |
| 20260502160712 | 35 | 0.0 | 0.0 | 0.00 | 0.54 | 0.02 | 93 | 1014.4 | |
| 20260502151713 | 33 | 0.0 | 0.0 | 0.00 | 0.54 | 0.02 | 92 | 1013.7 | |
| 20260502150712 | 33 | 0.0 | 0.0 | 0.00 | 0.54 | 0.02 | 92 | 1013.6 | |
| 20260502130712 | 33 | 0.0 | 0.0 | 0.00 | 0.58 | 0.02 | 92 | 1012.3 | |
| 20260502123753 | 33 | 0.0 | 0.0 | 0.00 | 0.59 | 0.02 | 92 | 1011.9 | |
| 20260502122713 | 33 | 0.0 | 0.0 | 0.00 | 0.60 | 0.02 | 92 | 1011.9 | |
| 20260502121733 | 33 | 315 | 2.0 | 2.0 | 0.00 | 0.60 | 0.02 | 92 | 1011.9 |
| 20260502120732 | 33 | 0.0 | 0.0 | 0.00 | 0.60 | 0.02 | 92 | 1011.9 | |
| 20260502115733 | 33 | 0.0 | 0.0 | 0.00 | 0.60 | 0.02 | 92 | 1011.9 | |
| 20260502114712 | 33 | 0.0 | 0.0 | 0.00 | 0.60 | 0.02 | 92 | 1011.9 | |
| 20260502113712 | 33 | 0.0 | 0.0 | 0.00 | 0.60 | 0.02 | 92 | 1011.9 | |
| 20260502112712 | 33 | 0.0 | 0.0 | 0.00 | 0.61 | 0.02 | 92 | 1011.9 | |
| 20260502111712 | 33 | 0.0 | 0.0 | 0.00 | 0.62 | 0.02 | 92 | 1011.9 | |
| 20260502110712 | 33 | 0.0 | 0.0 | 0.00 | 0.62 | 0.02 | 92 | 1011.9 | |
| 20260502105712 | 33 | 0.0 | 0.0 | 0.00 | 0.62 | 0.02 | 92 | 1011.9 | |
| 20260502104712 | 33 | 0.0 | 0.0 | 0.00 | 0.63 | 0.02 | 92 | 1011.6 | |
| 20260502103712 | 33 | 0.0 | 0.0 | 0.00 | 0.64 | 0.02 | 92 | 1011.2 | |
| 20260502102713 | 33 | 0.0 | 0.0 | 0.01 | 0.64 | 0.02 | 92 | 1011.2 | |
| 20260502101733 | 33 | 0.0 | 0.0 | 0.01 | 0.64 | 0.02 | 92 | 1010.9 | |
| 20260502100713 | 33 | 0.0 | 0.0 | 0.01 | 0.64 | 0.02 | 91 | 1010.9 | |
| 20260502090712 | 33 | 0.0 | 0.0 | 0.01 | 0.65 | 0.01 | 91 | 1010.2 | |
| 20260502070713 | 34 | 0.0 | 0.0 | 0.03 | 0.65 | 0.64 | 90 | 1008.5 | |
| 20260502065732 | 34 | 0.0 | 0.0 | 0.03 | 0.64 | 0.63 | 90 | 1008.5 | |
| 20260502064732 | 34 | 0.0 | 0.0 | 0.04 | 0.64 | 0.63 | 89 | 1008.4 | |
| 20260502063732 | 34 | 0.0 | 0.0 | 0.04 | 0.64 | 0.63 | 89 | 1008.2 | |
| 20260502062712 | 34 | 0.0 | 0.0 | 0.04 | 0.63 | 0.62 | 89 | 1008.2 | |
| 20260502061712 | 35 | 0.0 | 0.0 | 0.04 | 0.62 | 0.61 | 89 | 1008.0 | |
| 20260502060712 | 35 | 0.0 | 0.0 | 0.04 | 0.62 | 0.61 | 89 | 1007.8 | |
| 20260502055712 | 35 | 0.0 | 0.0 | 0.05 | 0.61 | 0.60 | 89 | 1007.5 | |
| 20260502054712 | 35 | 337 | 3.0 | 4.0 | 0.04 | 0.60 | 0.59 | 89 | 1007.5 |
| 20260502053712 | 36 | 328 | 4.0 | 5.0 | 0.04 | 0.60 | 0.59 | 89 | 1007.2 |
| 20260502052734 | 36 | 321 | 5.0 | 6.0 | 0.05 | 0.59 | 0.58 | 89 | 1007.2 |
| 20260502051712 | 36 | 310 | 6.0 | 8.0 | 0.04 | 0.58 | 0.57 | 89 | 1006.8 |
| 20260502050713 | 36 | 305 | 6.0 | 8.0 | 0.04 | 0.58 | 0.57 | 89 | 1006.7 |
| 20260502045713 | 36 | 314 | 6.0 | 8.0 | 0.04 | 0.57 | 0.55 | 89 | 1006.5 |
| 20260502044734 | 36 | 310 | 4.0 | 6.0 | 0.04 | 0.57 | 0.55 | 89 | 1006.5 |
| 20260502043713 | 36 | 319 | 4.0 | 8.0 | 0.06 | 0.57 | 0.55 | 89 | 1006.1 |
| 20260502042713 | 36 | 320 | 3.0 | 5.0 | 0.05 | 0.55 | 0.53 | 89 | 1006.1 |
| 20260502041712 | 36 | 316 | 6.0 | 9.0 | 0.06 | 0.55 | 0.53 | 89 | 1006.1 |
| 20260502040713 | 36 | 325 | 9.0 | 14.0 | 0.07 | 0.56 | 0.53 | 88 | 1006.1 |
| 20260502035713 | 36 | 336 | 5.0 | 7.0 | 0.06 | 0.54 | 0.51 | 88 | 1006.3 |
| 20260502034712 | 36 | 317 | 6.0 | 9.0 | 0.07 | 0.54 | 0.51 | 88 | 1006.0 |
| 20260502033712 | 36 | 324 | 8.0 | 11.0 | 0.06 | 0.52 | 0.49 | 88 | 1006.0 |
| 20260502032713 | 36 | 323 | 7.0 | 11.0 | 0.06 | 0.51 | 0.48 | 88 | 1006.1 |
| 20260502031712 | 36 | 327 | 9.0 | 17.0 | 0.06 | 0.50 | 0.47 | 88 | 1006.1 |
| 20260502030712 | 36 | 316 | 8.0 | 14.0 | 0.05 | 0.49 | 0.46 | 88 | 1006.1 |
| 20260502025713 | 36 | 306 | 10.0 | 18.0 | 0.05 | 0.48 | 0.45 | 88 | 1006.3 |
| 20260502024712 | 36 | 334 | 7.0 | 11.0 | 0.05 | 0.47 | 0.44 | 88 | 1006.5 |
| 20260502023713 | 36 | 309 | 6.0 | 7.0 | 0.04 | 0.46 | 0.43 | 88 | 1006.7 |
| 20260502022753 | 36 | 329 | 9.0 | 11.0 | 0.04 | 0.46 | 0.42 | 88 | 1006.5 |
| 20260502021713 | 37 | 334 | 4.0 | 7.0 | 0.04 | 0.45 | 0.41 | 88 | 1006.8 |
| 20260502020713 | 37 | 332 | 3.0 | 7.0 | 0.04 | 0.45 | 0.41 | 87 | 1006.8 |
| 20260502015712 | 37 | 358 | 6.0 | 11.0 | 0.03 | 0.44 | 0.40 | 88 | 1006.7 |
| 20260502014712 | 37 | 319 | 7.0 | 10.0 | 0.02 | 0.43 | 0.39 | 88 | 1006.3 |
| 20260502013712 | 37 | 330 | 7.0 | 11.0 | 0.03 | 0.43 | 0.39 | 88 | 1006.5 |
| 20260502012733 | 37 | 337 | 6.0 | 14.0 | 0.03 | 0.42 | 0.38 | 87 | 1006.5 |
| 20260502011712 | 37 | 327 | 10.0 | 16.0 | 0.02 | 0.41 | 0.37 | 87 | 1006.5 |
| 20260502010713 | 37 | 329 | 5.0 | 10.0 | 0.02 | 0.41 | 0.37 | 87 | 1006.5 |
| 20260502005713 | 37 | 317 | 9.0 | 15.0 | 0.03 | 0.41 | 0.37 | 87 | 1006.7 |
| 20260502004713 | 37 | 318 | 12.0 | 16.0 | 0.03 | 0.41 | 0.37 | 86 | 1006.5 |
| 20260502003713 | 37 | 329 | 10.0 | 17.0 | 0.03 | 0.40 | 0.36 | 87 | 1006.8 |
| 20260502002712 | 37 | 320 | 9.0 | 15.0 | 0.02 | 0.39 | 0.35 | 86 | 1006.8 |
| 20260502001712 | 37 | 338 | 9.0 | 13.0 | 0.02 | 0.39 | 0.35 | 87 | 1007.2 |
| 20260502000712 | 37 | 341 | 4.0 | 9.0 | 0.03 | 0.39 | 0.35 | 86 | 1007.3 |
| 20260501235712 | 37 | 326 | 9.0 | 13.0 | 0.03 | 0.39 | 0.34 | 86 | 1007.5 |
| 20260501234712 | 37 | 312 | 9.0 | 17.0 | 0.03 | 0.39 | 0.34 | 87 | 1007.8 |
| 20260501233712 | 37 | 325 | 9.0 | 14.0 | 0.02 | 0.38 | 0.33 | 87 | 1008.5 |
| 20260501232712 | 37 | 319 | 8.0 | 11.0 | 0.02 | 0.38 | 0.33 | 87 | 1008.5 |
| 20260501231713 | 37 | 315 | 7.0 | 13.0 | 0.02 | 0.38 | 0.33 | 87 | 1008.5 |
| 20260501230714 | 37 | 328 | 12.0 | 16.0 | 0.02 | 0.37 | 0.32 | 86 | 1008.5 |
| 20260501225712 | 37 | 325 | 9.0 | 19.0 | 0.02 | 0.36 | 0.31 | 86 | 1008.7 |
| 20260501224712 | 37 | 341 | 9.0 | 12.0 | 0.02 | 0.36 | 0.31 | 86 | 1008.9 |
| 20260501223713 | 38 | 321 | 10.0 | 15.0 | 0.02 | 0.36 | 0.31 | 85 | 1008.7 |
| 20260501222712 | 38 | 323 | 7.0 | 13.0 | 0.03 | 0.36 | 0.31 | 85 | 1008.7 |
| 20260501221713 | 37 | 331 | 10.0 | 14.0 | 0.04 | 0.36 | 0.31 | 86 | 1008.9 |
| 20260501220712 | 37 | 327 | 11.0 | 18.0 | 0.03 | 0.35 | 0.30 | 86 | 1008.9 |
| 20260501215712 | 37 | 313 | 9.0 | 14.0 | 0.02 | 0.34 | 0.29 | 86 | 1009.2 |
| 20260501214712 | 37 | 347 | 6.0 | 10.0 | 0.03 | 0.34 | 0.29 | 87 | 1009.9 |
| 20260501213753 | 37 | 326 | 8.0 | 11.0 | 0.04 | 0.34 | 0.29 | 87 | 1010.2 |
| 20260501212712 | 36 | 324 | 5.0 | 9.0 | 0.03 | 0.34 | 0.28 | 88 | 1010.2 |
| 20260501211713 | 36 | 325 | 7.0 | 10.0 | 0.02 | 0.33 | 0.27 | 87 | 1009.9 |
| 20260501210713 | 36 | 319 | 10.0 | 14.0 | 0.02 | 0.33 | 0.27 | 87 | 1010.0 |
| 20260501205713 | 37 | 307 | 9.0 | 15.0 | 0.03 | 0.33 | 0.27 | 87 | 1010.1 |
| 20260501204712 | 37 | 318 | 6.0 | 9.0 | 0.03 | 0.32 | 0.26 | 86 | 1010.2 |
| 20260501203712 | 37 | 315 | 11.0 | 14.0 | 0.02 | 0.31 | 0.25 | 86 | 1009.9 |
| 20260501202712 | 37 | 321 | 8.0 | 13.0 | 0.03 | 0.31 | 0.25 | 87 | 1009.9 |
| 20260501201712 | 36 | 349 | 7.0 | 15.0 | 0.04 | 0.31 | 0.25 | 88 | 1010.0 |
| 20260501200712 | 36 | 309 | 8.0 | 11.0 | 0.04 | 0.31 | 0.25 | 88 | 1010.2 |
| 20260501195712 | 36 | 339 | 7.0 | 11.0 | 0.03 | 0.30 | 0.24 | 88 | 1010.4 |
| 20260501194733 | 36 | 324 | 11.0 | 17.0 | 0.04 | 0.29 | 0.23 | 88 | 1010.2 |
| 20260501193712 | 36 | 312 | 9.0 | 14.0 | 0.04 | 0.29 | 0.23 | 88 | 1010.2 |
| 20260501192712 | 36 | 328 | 8.0 | 15.0 | 0.04 | 0.28 | 0.22 | 88 | 1010.6 |
| 20260501191712 | 36 | 325 | 7.0 | 11.0 | 0.04 | 0.27 | 0.21 | 88 | 1010.2 |
| 20260501190713 | 36 | 300 | 10.0 | 14.0 | 0.04 | 0.27 | 0.21 | 87 | 1010.4 |
| 20260501185712 | 36 | 318 | 7.0 | 11.0 | 0.04 | 0.27 | 0.21 | 87 | 1010.2 |
| 20260501184753 | 36 | 322 | 8.0 | 12.0 | 0.02 | 0.25 | 0.19 | 87 | 1010.6 |
| 20260501183714 | 36 | 322 | 7.0 | 12.0 | 0.03 | 0.25 | 0.19 | 87 | 1010.6 |
| 20260501182712 | 36 | 331 | 7.0 | 15.0 | 0.03 | 0.24 | 0.18 | 87 | 1010.6 |
| 20260501181712 | 36 | 329 | 7.0 | 11.0 | 0.02 | 0.23 | 0.17 | 87 | 1010.4 |
| 20260501180713 | 36 | 340 | 6.0 | 8.0 | 0.02 | 0.23 | 0.17 | 87 | 1010.6 |
| 20260501175712 | 36 | 348 | 5.0 | 9.0 | 0.02 | 0.23 | 0.17 | 86 | 1010.6 |
| 20260501174712 | 36 | 36 | 14.0 | 21.0 | 0.02 | 0.23 | 0.17 | 85 | 1010.2 |
| 20260501173712 | 36 | 332 | 9.0 | 17.0 | 0.01 | 0.22 | 0.16 | 85 | 1010.2 |
| 20260501172713 | 36 | 38 | 17.0 | 22.0 | 0.01 | 0.21 | 0.15 | 85 | 1010.2 |
| 20260501171713 | 36 | 319 | 16.0 | 25.0 | 0.01 | 0.21 | 0.15 | 85 | 1010.4 |